Regional Weather Roundup
Issued by NWS Green Bay, WI

Home | Current Version | Previous Version | Text Only | Print | Product List | Glossary On
Versions: 1 2 3 4 5 6 7 8 9 10 11 12 13 14 15 16 17 18 19 20 21 22 23 24 25 26 27 28 29 30 31 32 33 34 35 36 37 38 39 40 41 42 43 44 45 46 47 48 49 50
000
ASUS43 KGRB 020259
RWRGRB

NORTH-CENTRAL AND NORTHEAST WISCONSIN REGIONAL WEATHER ROUNDUP
NATIONAL WEATHER SERVICE GREEN BAY WI
1000 PM CDT MON SEP 01 2014

WIZ005-009-010>012-018-019-020400-
NORTH CENTRAL WISCONSIN

CITY           SKY/WX    TMP DP  RH WIND       PRES   REMARKS
IRONWOOD       NOT AVBL
MANITOWISH WTR NOT AVBL
ARBOR VITAE    NOT AVBL
EAGLE RIVER    NOT AVBL
LAND O LAKES   NOT AVBL
RHINELANDER    CLEAR     57  55  93 W5        29.80R
PHILLIPS       NOT AVBL
ANTIGO         NOT AVBL
TOMAHAWK       NOT AVBL
MERRILL        NOT AVBL
$$

WIZ013-073-020400-
NORTHEAST WISCONSIN

CITY           SKY/WX    TMP DP  RH WIND       PRES   REMARKS
IRON MOUNTAIN  CLEAR     57  56  96 CALM      29.73S
MARINETTE      CLEAR     64  59  82 W3        29.74R
$$

WIZ017-030-035>037-045-020400-
CENTRAL WISCONSIN

CITY           SKY/WX    TMP DP  RH WIND       PRES   REMARKS
MEDFORD        NOT AVBL
WAUSAU         CLEAR     63  56  78 NW6       29.79R
MOSINEE        NOT AVBL
MARSHFIELD     PTCLDY    62  57  83 W6        29.80S
WISC RAPIDS    PTCLDY    63  59  87 W3        29.81R
STEVENS POINT  NOT AVBL
WAUPACA        NOT AVBL
SHAWANO        CLEAR     65  59  80 SW3       29.77S
CLINTONVILLE   NOT AVBL
$$

WIZ038-039-048-051-020400-
FOX VALLEY

CITY           SKY/WX    TMP DP  RH WIND       PRES   REMARKS
NWS GREEN BAY  CLEAR     63  60  90 SW5       29.77R
APPLETON       CLEAR     64  61  88 CALM      29.79R
OSHKOSH        CLEAR     66  63  90 SW3       29.79R
FOND DU LAC    CLEAR     64  61  90 SW6       29.81R
$$

WIZ022-050-052-020400-
EAST CENTRAL WISCONSIN

CITY           SKY/WX    TMP DP  RH WIND       PRES   REMARKS
STURGEON BAY   CLEAR     66  63  88 W5        29.76S
MANITOWOC      NOT AVBL
SHEBOYGAN      CLEAR     63  60  90 SW6       29.79R
$$

LMZ563-521-522-541>543-020400-
LAKESHORE

STATION/POSITION TIME  TEMP    WIND        PRES    VSBY  WAVE
                       AIR SEA DIR/SP/G                  HT/PER
                 (UTC) (F)     (DEG/KT/KT) (MB)    (MI)  (FT/S)
SHEBOYGAN LKSHOR 0200   69 55  260/  7/  9 1008.3R
KEWAUNEE LKSHORE 0200   68     270/  2/  3 1006.9R
NORTHPORT PIER   0200   66     240/  3/  4 1006.8R
N MID LAKE BUOY  0200   66 65  250/  6/  8 1006.2R         2/ 5
S GREEN BAY BUOY 0200   71     VRB 12/ 14  1008.4R
CHAMBERS ISLAND  0200   69     220/  6/ 10 1006.8R
MENOMINEE LKSHOR 0200   67     230/  5/  6 1007.9R
$$


USA.gov is the U.S. government's official web portal to all federal, state and local government web resources and services.